This demonstration page uses our WeatherBlox Daily Observations layout. Learn more.

Hourly Observations for June 27, 2017

Temp ( °F °C ) Dew Point ( °F °C ) Humidity (%) Winds ( mph kmh ) Pressure ( in mb ) Visibility ( mi km ) Precip ( " mm )
12:54 am 00:54 Clear 58 14.4 52 11.1 81 81 Calm 30.14 1021 10 16.0934 0 0
1:54 am 01:54 Mostly Clear 60 15.6 53 11.7 78 78 Calm 30.13 1020 10 16.0934 0 0
2:54 am 02:54 Clear 56 13.3 51 10.6 84 84 Calm 30.12 1020 10 16.0934 0 0
3:54 am 03:54 Clear 54 12.2 51 10.6 90 90 Calm 30.11 1020 10 16.0934 0 0
4:54 am 04:54 Partly Cloudy 51 10.6 48 8.9 89 89 NNE 3 6 30.11 1020 10 16.0934 0 0
5:02 am 05:02 Mostly Cloudy 53 11.7 51 10.6 93 93 NNE 3 6 30.12 1020 10 16.0934 0 0
5:26 am 05:26 Cloudy with Mist and Fog 57 13.9 55 12.8 93 93 SE 5 7 30.12 1020 1.5 2.41401 0 0
5:30 am 05:30 Cloudy with Fog 58 14.4 57 13.9 97 97 SSE 6 9 30.12 1020 0.25 0.402335 0 0
5:34 am 05:34 Mostly Cloudy with Fog 57 13.9 57 13.9 100 100 SSE 7 11 30.12 1020 0.25 0.402335 0 0
5:46 am 05:46 Mostly Cloudy with Fog 57 13.9 57 13.9 100 100 S 5 7 30.12 1020 0.25 0.402335 0 0
5:54 am 05:54 Mostly Cloudy with Fog 57 13.9 57 13.9 100 100 S 5 7 30.09 1019 0.25 0.402335 0 0
6:28 am 06:28 Mostly Cloudy with Mist and Fog 56 13.3 55 12.8 97 97 Calm 30.09 1019 2 3.21868 0 0
6:39 am 06:39 Partly Cloudy with Mist and Fog 56 13.3 56 13.3 100 100 Calm 30.12 1020 3 4.82802 0 0
6:54 am 06:54 Sunny with Mist and Fog 57 13.9 56 13.3 96 96 S 3 6 30.09 1019 4 6.43736 0 0
7:54 am 07:54 Sunny 60 15.6 57 13.9 90 90 SSE 7 11 30.08 1019 10 16.0934 0 0
8:54 am 08:54 Sunny 67 19.4 57 13.9 71 71 SE 14 22 30.06 1018 10 16.0934 0 0
9:54 am 09:54 Sunny 70 21.1 57 13.9 64 64 SSE 12 19 30.05 1018 10 16.0934 0 0
10:54 am 10:54 Sunny 72 22.2 58 14.4 61 61 SE 18 30 30.01 1016 10 16.0934 0 0
11:54 am 11:54 Sunny 74 23.3 59 15 60 60 SSE 18 30 29.98 1015 10 16.0934 0 0
12:54 pm 12:54 Sunny 77 25 61 16.1 58 58 SSE 17 28 29.96 1014 10 16.0934 0 0
1:54 pm 13:54 Mostly Sunny 79 26.1 63 17.2 58 58 SSE 18 30 29.91 1013 10 16.0934 0 0
2:54 pm 14:54 Mostly Sunny 81 27.2 63 17.2 54 54 SSE 18 30 29.88 1012 10 16.0934 0 0
3:54 pm 15:54 Partly Cloudy 83 28.3 65 18.3 55 55 SSE 21 33 29.85 1011 10 16.0934 0 0
4:54 pm 16:54 Mostly Cloudy 83 28.3 66 18.9 57 57 S 22 35 29.82 1010 10 16.0934 0 0
5:54 pm 17:54 Mostly Cloudy 82 27.8 67 19.4 60 60 S 22 35 29.79 1009 10 16.0934 0 0
6:54 pm 18:54 Sunny 82 27.8 67 19.4 60 60 SSE 21 33 29.75 1008 10 16.0934 0 0
7:54 pm 19:54 Cloudy 80 26.7 67 19.4 64 64 SSE 18 30 29.74 1007 10 16.0934 0 0
8:54 pm 20:54 Mostly Sunny 78 25.6 67 19.4 69 69 SSE 17 28 29.71 1006 10 16.0934 0 0
9:54 pm 21:54 Clear 77 25 66 18.9 69 69 SSE 21 33 29.71 1006 10 16.0934 0 0
10:54 pm 22:54 Clear 77 25 65 18.3 66 66 SSE 21 33 29.71 1006 10 16.0934 0 0
11:54 pm 23:54 Clear 77 25 65 18.3 66 66 S 20 31 29.7 1006 10 16.0934 0 0

Powered by AerisWeather